Regional Weather Roundup
Issued by NWS Sterling, VA

Home | Current Version | Previous Version | Text Only | Print | Product List | Glossary On
Versions: 1 2 3 4 5 6 7 8 9 10 11 12 13 14 15 16 17 18 19 20 21 22 23 24 25 26 27
000
ASUS41 KLWX 231310
RWRLWX

REGIONAL WEATHER ROUNDUP
NATIONAL WEATHER SERVICE BALTIMORE MD/WASHINGTON DC
800 AM EST THU NOV 23 2017

Note: "FAIR" indicates few or no clouds below 12,000 feet
with no significant weather and/or obstructions to visibility.
 TC=TEMPERATURE CELSIUS

 * =Non NWS site. Station does not report precipitation (e.g. rain,
    snow, etc.), thunder, or fog.

DCZ001-MDZ009-015-VAZ040>042-051-053>054-231400-
WASHINGTON METRO

CITY           SKY/WX    TMP DP  RH WIND       PRES   REMARKS
WASHINGTON NAT CLOUDY    34  22  61 NW10      30.21R WCI  26
DULLES         CLOUDY    28  21  75 NW3       30.20R
ANDREWS AFB    CLOUDY    31  21  66 NW7       30.19R
FT BELVOIR     CLOUDY    27  23  86 CALM      30.21R
QUANTICO       CLOUDY    31  26  82 NW6       30.24R
COLLEGE PARK*  CLOUDY    26  23  88 CALM      30.20R
LEESBURG*      CLOUDY    28  27  93 NW6       30.21R
MANASSAS*      CLOUDY    20  18  92 CALM      30.22R
GAITHERSBURG*  CLOUDY    23  20  88 CALM      30.19R

$$

MDZ006>007-011-014-231400-
BALTIMORE METRO

CITY           SKY/WX    TMP DP  RH WIND       PRES   REMARKS
BWI AIRPORT    CLOUDY    29  22  75 W3        30.19R
MD SCIENCE CTR   N/A     35  22  58 MISG      30.19R
MARTIN STATE   PTCLDY    28  27  93 W5        30.20S
FORT MEADE*    CLOUDY    25  23  93 CALM      30.21R

$$

MDZ012-015-019>023-231400-
MARYLAND EASTERN SHORE

CITY           SKY/WX    TMP DP  RH WIND       PRES   REMARKS
OCEAN CITY     CLOUDY    33  25  72 NW7       30.18R
SALISBURY      CLOUDY    33  25  72 NW3       30.19R
CAMBRIDGE*     SUNNY     34  23  64 NW6       30.19R
EASTON*        PTCLDY    34  27  75 CALM      30.22R

$$

MDZ017>025-231400-
SOUTHERN MARYLAND

CITY           SKY/WX    TMP DP  RH WIND       PRES   REMARKS
PATUXENT RIVER PTCLDY    36  25  64 NW13      30.20R WCI  27
ST INIGOES     MOSUNNY   36  26  67 NW6       30.20R
LEONARDTOWN*   PTCLDY    32  27  80 W5        30.22R

$$

MDZ003>005-231400-
NORTH CENTRAL MARYLAND

CITY           SKY/WX    TMP DP  RH WIND       PRES   REMARKS
FREDERICK*     MOCLDY    30  21  69 CALM      30.22R
HAGERSTOWN APT CLOUDY    32  22  66 S3        30.17R
WESTMINSTER*   CLOUDY    27  21  80 CALM      30.15S

$$

MDZ501>502-231400-
WESTERN MARYLAND

CITY           SKY/WX    TMP DP  RH WIND       PRES   REMARKS
OAKLAND*       CLOUDY    21  18  86 NW3       30.02F
CUMBERLAND*    CLOUDY    28  23  80 CALM      30.22S

$$

VAZ025>031-231400-
SHENANDOAH VALLEY

CITY           SKY/WX    TMP DP  RH WIND       PRES   REMARKS
WINCHESTER*    CLOUDY    27  19  74 CALM      30.18R
FRONT ROYAL*   CLOUDY    21  19  93 CALM      30.19R
LURAY*         PTCLDY    21  21 100 CALM      30.18R
NEW MARKET*    PTCLDY    19  17  92 CALM      30.17R
STAUNTON*      CLOUDY    17  15  93 CALM      30.18R
WAYNESBORO*    CLOUDY    20  19  94 CALM      30.14S

$$

WVZ021-048>050-054>055-231400-
EASTERN WEST VIRGINIA PANHANDLE

CITY           SKY/WX    TMP DP  RH WIND       PRES   REMARKS
MARTINSBURG    CLOUDY    30  19  63 NW6       30.18R
PETERSBURG*    CLOUDY    20  18  93 CALM      30.18S

$$

VAZ036>039-050-231400-
CENTRAL FOOTHILLS

CITY           SKY/WX    TMP DP  RH WIND       PRES   REMARKS
CHARLOTTESVILL CLOUDY    28  23  81 CALM      30.18R
CULPEPER*      CLOUDY    22  20  89 CALM      30.22R
ORANGE*        CLOUDY    21  19  93 CALM      30.20R
GORDONSVILLE*  CLOUDY    22  22  97 CALM      30.20R
WARRENTON*     NOT AVBL

$$

VAZ055>057-231400-
NORTH AND CENTRAL PIEDMONT

CITY           SKY/WX    TMP DP  RH WIND       PRES   REMARKS
FREDERICKSBRG* CLOUDY    29  27  90 CALM      30.22R
STAFFORD*      CLOUDY    24  24 100 CALM      30.26R

$$

NCZ024-NYZ072-PAZ021-071-VAZ022-071-231400-
OTHER REGIONAL OBSERVATIONS

CITY           SKY/WX    TMP DP  RH WIND       PRES   REMARKS
NEW YORK CITY  CLEAR     32  19  58 VRB3      30.13S
PHILADELPHIA   PTCLDY    32  18  56 NW8       30.18R WCI  25
PITTSBURGH     CLOUDY    22  21  96 CALM      30.14F
ROANOKE        CLOUDY    27  22  81 W3        30.18R
RICHMOND       CLOUDY    32  26  78 N7        30.20R
RALEIGH        MOCLDY    36  29  75 NE8       30.18R

$$

ANZ530>537-231400-
MARINE OBSERVATIONS

STATION/POSITION TIME  TEMP    WIND        PRES
                       AIR SEA DIR/SP/G
                 (UTC) (F)     (DEG/KT/KT) (MB)
THOMAS PT LIGHT  1200   34 51  330/  9/ 10   N/A
BALT KEY BRIDGE  1248   35     290/  8/  9 1022.3R
COVE POINT       1248   37     360/  9/ 17 1023.1R
LEWISETTA        1248   38 49  360/  9/ 13 1022.6R
SOLOMONS ISLAND  1248   36 52  330/  9/ 12 1022.4R
PINEY POINT      1248           10/  9/ 10   N/A

$$





USA.gov is the U.S. government's official web portal to all federal, state and local government web resources and services.